MST,Max TemperatureF,Mean TemperatureF,Min TemperatureF,Max Dew PointF,MeanDew PointF,Min DewpointF,Max Humidity, Mean Humidity, Min Humidity, Max Sea Level PressureIn, Mean Sea Level PressureIn, Min Sea Level PressureIn, Max VisibilityMiles, Mean VisibilityMiles, Min VisibilityMiles, Max Wind SpeedMPH, Mean Wind SpeedMPH, Max Gust SpeedMPH,PrecipitationIn, CloudCover, Events, WindDirDegrees
2013-12-1,55,45,35,25,19,10,56,34,21,30.15,30.03,29.87,20,10,10,34,13,47,0.00,3,,284
2013-12-2,59,52,46,23,21,18,35,29,20,29.88,29.73,29.56,20,12,10,31,20,47,0.00,2,,303
2013-12-3,55,34,12,27,17,9,93,55,29,29.73,29.60,29.48,20,9,1,23,9,31,0.00,5,Snow,31
2013-12-4,12,6,0,9,3,-6,92,82,72,29.98,29.79,29.70,12,4,0,10,7,,0.00,7,Snow,51
2013-12-5,6,2,-2,0,-4,-8,92,79,66,30.02,29.97,29.90,12,9,2,10,3,,0.00,2,Snow,333
2013-12-6,6,0,-5,0,-4,-9,92,81,67,30.12,30.06,29.93,15,8,3,13,5,,0.00,3,Fog-Snow,334
2013-12-7,26,13,0,3,-2,-6,85,81,31,30.10,29.91,29.69,10,6,2,7,1,,0.00,6,,313
2013-12-8,19,11,3,10,3,-2,92,82,68,29.94,29.75,29.63,10,8,4,13,3,,0.00,5,,360
2013-12-9,28,14,0,3,-1,-6,92,59,28,30.06,29.99,29.92,20,10,7,44,14,55,0.00,3,,313
2013-12-10,44,34,24,16,8,3,59,37,23,30.22,30.03,29.89,20,12,10,32,20,58,0.00,1,,275
2013-12-11,30,24,17,18,15,12,80,71,55,30.28,30.25,30.22,20,10,10,13,6,,0.00,0,,112
2013-12-12,53,40,26,19,14,9,60,46,18,30.26,30.13,29.92,10,10,10,12,4,,0.00,1,,300
2013-12-13,50,41,32,19,14,9,60,44,19,30.14,29.93,29.83,15,10,10,15,5,17,0.00,2,,55
2013-12-14,44,34,24,21,16,10,74,50,25,30.26,30.17,30.14,15,10,10,25,7,32,0.00,2,,240
2013-12-15,55,48,41,18,13,9,36,26,16,30.16,30.12,30.06,20,11,10,43,22,52,0.00,1,,287
2013-12-16,62,54,46,18,12,3,28,21,12,30.25,30.16,30.11,20,11,10,34,20,46,0.00,1,,280
2013-12-17,64,50,35,14,11,9,41,22,13,30.32,30.21,30.07,20,10,10,23,10,30,0.00,1,,274
2013-12-18,64,57,48,14,10,9,25,16,11,30.07,29.90,29.74,10,10,10,25,12,38,0.00,3,,257
2013-12-19,50,34,17,25,18,14,100,57,24,29.85,29.71,29.55,20,8,0,17,8,,0.00,5,Snow,349
2013-12-20,24,20,17,21,18,14,100,92,86,29.84,29.73,29.61,7,4,2,9,4,,0.00,6,Fog,120
2013-12-21,30,22,15,25,20,12,100,89,64,29.86,29.64,29.50,15,5,0,13,3,,0.00,3,Fog-Snow,323
2013-12-22,39,29,19,23,18,10,100,77,31,30.19,29.98,29.87,10,7,4,23,4,28,0.00,5,Fog,291
2013-12-23,48,32,17,25,20,18,100,67,30,30.24,30.16,30.08,20,9,3,39,7,52,0.00,3,,326
2013-12-24,53,40,26,27,18,7,64,39,25,30.26,30.09,29.98,20,10,10,37,14,46,0.00,1,,259
2013-12-25,44,32,21,16,8,1,74,39,17,30.37,30.26,30.19,10,10,10,20,5,20,0.00,0,,269
2013-12-26,53,44,35,16,6,0,44,22,15,30.30,30.22,30.16,20,10,10,32,17,37,0.00,1,,270
2013-12-27,57,44,32,19,18,14,60,39,21,30.27,30.19,30.04,15,11,10,9,2,,0.00,1,,261
2013-12-28,57,39,21,27,21,18,93,55,23,30.21,30.02,29.88,15,8,1,21,6,29,0.00,4,Snow,352
2013-12-29,39,26,14,19,14,7,100,66,28,30.21,30.10,29.87,20,9,1,37,8,55,0.00,4,,259
2013-12-30,46,38,30,16,12,9,55,36,23,30.18,30.07,29.92,20,12,10,36,21,48,0.00,1,,267
2013-12-31,55,44,33,45,17,10,82,34,23,30.06,29.99,29.91,20,12,10,28,12,39,0.00,2,,265